1049 visiteurs
Prévisions de votre ville :
Vigilance : 6 départements Mise à jour le 13/12/2018 à 10:00 - Voir la carte

Paris Roissy CDG (95380) le 13/12/2018 à 13:30 Choisir station

3°C 70 % E Vit. moyenne 20 kmh/h

Relevés météo quotidiens pour la station de :

UTC
S: Synop
M: Metar
Loc T°C
(°C)
Td
(°C)
HR
(%)
Vis
(km)
Néb
(octa)
Vent
(km/h)
Pression
(mb)
Précipitations
(mm)
Temps
              MOY
10 min
DIR RAF 1h MESURE VAR SUR 3h    
S 00 h 02h 21.5 14.6 65 60 8/8 13 24 1015.2 -0.4/3h 2.0/6h - 0.4/3h
S 01 h 03h 21.7 14.6 64 60 8/8 15 35 1014.3 -1.6/3h 0.2/1h
M 02 h 04h 21 15 69 >=10 - 7 - 1014 -/3h -
S 03 h 05h 22.4 13.7 58 60 8/8 9 33 1014.1 -1.0/3h 0.2/3h
M 04 h 06h 23 14 57 >=10 - 9 - 1014 -/3h -
S 05 h 07h 21.3 14.2 64 60 7/8 9 30 1014.3 +0.2/3h 0.0/1h
S 06 h 08h 19.1 14.6 75 60 6/8 9 17 1014.5 +0.3/3h 2.0/12h - 0.0/3h - 3.2/24h
S 07 h 09h 20.4 15.0 71 55 8/8 6 13 1015.6 +1.1/3h 0.0/1h
S 08 h 10h 22.2 15.3 65 55 8/8 6 15 1015.9 +1.7/3h 0.0/1h
S 09 h 11h 25.3 14.4 51 50 /8 7 11 1016.2 +1.8/3h 0.0/3h
S 10 h 12h 26.9 15.6 50 40 6/8 7 13 1016.1 +0.6/3h 0.0/1h
S 11 h 13h 26.4 17.7 59 40 /8 9 17 1016.1 +0.2/3h 0.0/1h
S 12 h 14h 26.6 17.7 58 45 /8 13 30 1015.9 -0.3/3h 0.0/6h - 0.0/3h
S 13 h 15h 25.5 17.9 63 40 /8 13 20 1015.7 -0.4/3h 0.0/1h
S 14 h 16h 25.9 17.5 60 20 8/8 15 22 1015.9 -0.2/3h 0.0/1h
S 15 h 17h 25.0 18.7 68 55 /8 17 24 1016.2 +0.3/3h 0.0/3h
S 16 h 18h 23.6 17.6 69 50 7/8 17 28 1016.8 +1.1/3h 0.0/1h
S 17 h 19h 22.6 17.3 72 18 /8 7 20 1017.3 +1.4/3h 0.0/1h
S 18 h 20h 21.3 16.7 75 50 /8 6 9 1017.9 +1.6/3h 0.0/12h - 0.0/3h
S 19 h 21h 20.0 16.4 80 20 /8 7 13 1018.6 +1.7/3h 0.0/1h
S 20 h 22h 19.0 16.0 83 25 /8 7 15 1019.1 +1.7/3h 0.0/1h
S 21 h 23h 18.8 15.7 82 35 /8 7 13 1019.6 +1.7/3h 0.0/3h
S 22 h 00h 17.9 15.2 84 35 /8 6 15 1020.0 +1.4/3h 0.0/1h
S 23 h 01h 17.4 14.9 85 40 /8 9 11 1020.1 +1.0/3h 0.0/1h
evolution des temperatures
cumul des precipitations
vent moyen et rafales
pression atmospherique

Un tiret (-) signifie que les données ne sont pas disponibles.

Passez la souris sur les pictos temps pour avoir plus de précisions. Passez les flèches sur l'icône de la direction du vent pour voir la direction précise en degrés.

Les données de l'heure en cours sont disponibles à partir de H+15 minutes.


S signifie station Synop, plus complète qu'une station Metar (M). Il y a +1h de différence entre l'heure UTC et l'heure légale en hiver et +2h en été.

Td est la mesure du point de rosée.

HR est l'humidité relative/p>

Vis est la visibilité

Néb est la nébulosité du ciel (couverture nuageuse) exprimée en octas (de 0/8 à 8/8).

Vent moy 10 min donne le vent moyen sur les 10 minutes qui précèdent le relevé.

Vent raf 1h donne la rafale maximale mesurée dans l'heure qui précède le relevé.


Les données les plus anciennes remontent à avril 2014.

Les données présentées sur cette page proviennent des stations météo officielles. Les relevés sont effectués aux normes en vigueur (anémomètre à 10m de haut, thermomètre sous abri normalisé à 2m du sol...)

Météo 60 décline toute responsabilité en cas d'absence de données, d'erreurs, de mauvaise utilisation ou interprétation et n'est pas habilité à fournir des certificats intempéries.